Regional Weather Roundup
Issued by NWS

Home | Current Version | Previous Version | Text Only | Print | Product List | Glossary Off
Versions: 1 2 3 4 5 6 7 8 9 10 11 12 13 14 15 16 17 18 19 20 21 22 23 24 25 26 27 28 29 30 31 32 33 34 35 36 37 38 39 40 41 42 43 44 45 46 47 48 49 50

000
ASUS43 KIND 030309
RWRIN

WEATHER ROUNDUP FOR INDIANA
NATIONAL WEATHER SERVICE INDIANAPOLIS IN
1100 PM EDT TUE JUN 02 2015

NOTE: "FAIR" INDICATES FEW OR NO CLOUDS BELOW 12,000 FEET WITH NO
SIGNIFICANT WEATHER AND/OR OBSTRUCTIONS TO VISIBILITY.

* - STATION DOES NOT REPORT WEATHER SUCH AS PRECIPITATION OR FOG.

+ - STATION NOT QUALITY CONTROLLED BY THE NATIONAL WEATHER SERVICE.
    USE DATA WITH CAUTION...ESPECIALLY DEWPOINT AND RELATIVE
    HUMIDITY OBSERVATIONS.

INZ001>003-010>013-019-020-030400-
NORTHWEST INDIANA

CITY           SKY/WX    TMP DP  RH WIND       PRES   REMARKS
GARY /AIRPORT/ PTCLDY    55  48  76 NE5       30.11S
KNOX *+        CLEAR     57  54  88 SE3       30.10S
LA PORTE +     CLEAR     57  50  79 CALM      30.12R
MICHIGAN CITY+ CLEAR     50  46  87 CALM      30.12R
MONTICELLO +   CLEAR     56  56  97 CALM      30.10S
RENSSELAER +   CLEAR     59  55  88 SE3       30.11R
VALPARAISO     CLEAR     56  48  74 N3        30.12R

$$

LMZ046-743>745-030400-
SOUTHERN LAKE MICHIGAN

STATION/POSITION TIME  TEMP    WIND        PRES    WAVE
                       AIR SEA DIR/SP/G            HT
                 (UTC) (F)     (DEG/KT/KT) (MB)    (FT)
BURNS HARBOR     0300           70/  6/  8 1020.0S
MICHIGAN CITY    0300   56      40/ 10/ 12   N/A
5NW MICH CITY    0300   57 57  100/  8/ 10   N/A     1

$$

INZ004-005-014>016-021>024-030400-
NORTH CENTRAL INDIANA

CITY           SKY/WX    TMP DP  RH WIND       PRES   REMARKS
GOSHEN         CLEAR     59  50  72 E8        30.13R
LOGANSPORT +   CLEAR     55  52  88 E5        30.11S
PERU/GRISSOM   PTCLDY    59  54  83 E6        30.10R
ROCHESTER +    CLEAR     59  54  82 E5        30.12R
SOUTH BEND     CLEAR     63  50  62 E6        30.13R
WARSAW +       CLEAR     59  50  72 E8        30.12S

$$

INZ006>009-017-018-025>027-030400-
NORTHEAST INDIANA

CITY           SKY/WX    TMP DP  RH WIND       PRES   REMARKS
ANGOLA *+      CLEAR     55  45  67 CALM      30.15R
AUBURN +       CLEAR     52  45  76 CALM      30.16R
FORT WAYNE     PTCLDY    56  47  71 E7        30.15R
HUNTINGTON +   CLEAR     57  49  75 E5        30.13R

$$

INZ028-029-035-036-043>045-051>053-030400-
WEST CENTRAL INDIANA

CITY           SKY/WX    TMP DP  RH WIND       PRES   REMARKS
CRAWFORDSVL +  CLEAR     56  49  76 E5        30.11R
GREENCASTLE +  CLEAR     55  50  82 SE3       30.11R
LAFAYETTE      CLEAR     55  52  89 CALM      30.10R
TERRE HAUTE    CLEAR     61  55  81 E12       30.08R

$$

INZ030>032-037>040-046>048-054>057-064-065-030400-
CENTRAL INDIANA

CITY           SKY/WX    TMP DP  RH WIND       PRES   REMARKS
CP ATTERBURY + CLOUDY    57  52  82 CALM      30.12S
FRANKFORT +    CLEAR     55  55 100 SE5       30.12R
GREENWOOD *+   CLEAR     59  50  72 SE3       30.11S
INDIANAPOLIS   PTCLDY    58  50  75 SE7       30.09S
-EAGLE CREEK   CLEAR     59  52  77 CALM      30.10S
KOKOMO *+      PTCLDY    57  36  44 E3        30.11R
MARION +       CLOUDY    58  53  84 E5        30.13R
MT COMFORT *+  PTCLDY    57  55  94 CALM      30.12R
SHELBYVILLE    CLEAR     59  53  80 S5        30.10S
ZIONSVILLE +   CLEAR     59  52  75 CALM      30.11S

$$

INZ033-034-041-042-049-050-058-059-030400-
EAST CENTRAL INDIANA

CITY           SKY/WX    TMP DP  RH WIND       PRES   REMARKS
MUNCIE         CLEAR     57  53  86 CALM      30.11S

$$

INZ060-061-067>069-081>083-085>088-030400-
SOUTHWEST INDIANA

CITY           SKY/WX    TMP DP  RH WIND       PRES   REMARKS
EVANSVILLE     CLEAR     57  55  93 W3        30.08R
HUNTINGBURG *+ CLEAR     61  55  82 CALM      30.09R
WASHINGTON +   CLEAR     63  53  69 E9        30.08R

$$

INZ062-063-066-070>080-084-089>092-030400-
SOUTH CENTRAL AND SOUTHEAST INDIANA

CITY           SKY/WX    TMP DP  RH WIND       PRES   REMARKS
BLOOMINGTON    CLEAR     58  52  80 E8        30.10R
MADISON *+     CLOUDY    59  50  72 N3        30.13S
NORTH VERNON + CLOUDY    59  54  82 E5        30.13R
SEYMOUR +      MOCLDY    61  52  72 E6        30.11S

$$



USA.gov is the U.S. government's official web portal to all federal, state and local government web resources and services.